,,PA_Meas_PMT16A,,PR_Meas_QMR101_102,,RH_Meas_QMH101,,SR_Meas_QMS101,,TA_Meas_QMH101,,GenWind,,GenWind,
time,status,PA,status,PR,status,RH,status,SR,status,TA,status,DirAvg,status,SpdAvg,
2013-06-01, 07:10:04,VALID,915.164,VALID,0,VALID,89.9411,VALID,132.26,VALID,20.5999,VALID,122,VALID,0,
2013-06-01, 07:11:04,VALID,915.224,VALID,0,VALID,89.4684,VALID,135.268,VALID,20.6194,VALID,127,VALID,0,
2013-06-01, 07:12:04,VALID,915.279,VALID,0,VALID,89.6819,VALID,137.632,VALID,20.6569,VALID,154,VALID,0,
2013-06-01, 07:13:04,VALID,915.234,VALID,0,VALID,89.0263,VALID,141.178,VALID,20.756,VALID,155,VALID,0,
2013-06-01, 07:14:04,VALID,915.252,VALID,0,VALID,88.5536,VALID,144.401,VALID,20.7934,VALID,193,VALID,0,
2013-06-01, 07:15:04,VALID,915.249,VALID,0,VALID,88.4088,VALID,146.765,VALID,20.8129,VALID,184,VALID,0,
2013-06-01, 07:16:04,VALID,915.297,VALID,0,VALID,88.5917,VALID,149.88,VALID,20.8519,VALID,176,VALID,0,
2013-06-01, 07:17:04,VALID,915.349,VALID,0,VALID,88.6603,VALID,152.781,VALID,20.8925,VALID,165,VALID,0,
2013-06-01, 07:18:04,VALID,915.342,VALID,0,VALID,88.5841,VALID,156.219,VALID,20.891,VALID,153,VALID,0,
2013-06-01, 07:19:04,VALID,915.414,VALID,0,VALID,88.4774,VALID,159.335,VALID,20.93,VALID,171,VALID,0,
2013-06-01, 07:20:04,VALID,915.39,VALID,0,VALID,88.2258,VALID,162.558,VALID,20.9511,VALID,175,VALID,0,
2013-06-01, 07:21:04,VALID,915.346,VALID,0,VALID,88.4469,VALID,165.782,VALID,20.891,VALID,187,VALID,0,
2013-06-01, 07:22:04,VALID,915.434,VALID,0,VALID,88.9881,VALID,168.575,VALID,20.9316,VALID,192,VALID,0,
2013-06-01, 07:23:04,VALID,915.492,VALID,0,VALID,88.3935,VALID,171.369,VALID,20.9316,VALID,158,VALID,0,
2013-06-01, 07:24:04,VALID,915.53,VALID,0,VALID,88.7975,VALID,175.022,VALID,20.9901,VALID,175,VALID,0,
2013-06-01, 07:25:04,VALID,915.392,VALID,0,VALID,88.3554,VALID,178.352,VALID,21.086,VALID,174,VALID,0,
2013-06-01, 07:26:04,VALID,915.427,VALID,0,VALID,87.9361,VALID,181.576,VALID,21.1039,VALID,200,VALID,0,
2013-06-01, 07:27:04,VALID,915.441,VALID,0,VALID,87.4939,VALID,185.229,VALID,21.164,VALID,178,VALID,0,
2013-06-01, 07:28:04,VALID,915.453,VALID,0,VALID,87.2576,VALID,187.592,VALID,21.164,VALID,179,VALID,0,
2013-06-01, 07:29:04,VALID,915.354,VALID,0,VALID,87.3339,VALID,190.493,VALID,21.1836,VALID,205,VALID,0,
2013-06-01, 07:30:04,VALID,915.397,VALID,0,VALID,87.6388,VALID,194.039,VALID,21.2226,VALID,162,VALID,0,
2013-06-01, 07:31:04,VALID,915.391,VALID,0,VALID,87.1433,VALID,196.832,VALID,21.221,VALID,195,VALID,0,
2013-06-01, 07:32:04,VALID,915.378,VALID,0,VALID,87.2271,VALID,199.841,VALID,21.26,VALID,177,VALID,0,
2013-06-01, 07:33:04,VALID,915.393,VALID,0,VALID,87.2119,VALID,203.064,VALID,21.3006,VALID,171,VALID,0,
2013-06-01, 07:34:04,VALID,915.48,VALID,0,VALID,87.0061,VALID,207.469,VALID,21.3185,VALID,154,VALID,0,
2013-06-01, 07:35:04,VALID,915.421,VALID,0,VALID,86.5791,VALID,210.585,VALID,21.338,VALID,178,VALID,0,
2013-06-01, 07:36:04,VALID,915.45,VALID,0,VALID,86.3504,VALID,214.56,VALID,21.338,VALID,150,VALID,0,
2013-06-01, 07:37:04,VALID,915.412,VALID,0,VALID,85.4509,VALID,218.106,VALID,21.3396,VALID,166,VALID,0,
2013-06-01, 07:38:04,VALID,915.493,VALID,0,VALID,85.7558,VALID,221.973,VALID,21.3575,VALID,137,VALID,0,
2013-06-01, 07:39:04,VALID,915.484,VALID,0,VALID,85.5957,VALID,225.412,VALID,21.416,VALID,158,VALID,0,
2013-06-01, 07:40:04,VALID,915.532,VALID,0,VALID,85.7253,VALID,228.205,VALID,21.4957,VALID,177,VALID,0,
2013-06-01, 07:41:04,VALID,915.458,VALID,0,VALID,85.1459,VALID,231.858,VALID,21.5152,VALID,151,VALID,0,
2013-06-01, 07:42:04,VALID,915.469,VALID,0,VALID,85.6338,VALID,235.941,VALID,21.5754,VALID,103,VALID,0,
2013-06-01, 07:43:04,VALID,915.391,VALID,0,VALID,85.1536,VALID,239.594,VALID,21.6518,VALID,124,VALID,0,
2013-06-01, 07:44:04,VALID,915.515,VALID,0,VALID,85.6262,VALID,243.139,VALID,21.7298,VALID,136,VALID,0,
2013-06-01, 07:45:04,VALID,915.529,VALID,0,VALID,84.5513,VALID,246.577,VALID,21.7493,VALID,132,VALID,0,
2013-06-01, 07:46:04,VALID,915.573,VALID,0,VALID,84.2235,VALID,250.123,VALID,21.8079,VALID,160,VALID,0,
2013-06-01, 07:47:04,VALID,915.698,VALID,0,VALID,83.7813,VALID,252.487,VALID,21.8842,VALID,176,VALID,0,
2013-06-01, 07:48:04,VALID,915.454,VALID,0,VALID,83.5679,VALID,255.173,VALID,21.9818,VALID,133,VALID,0,
2013-06-01, 07:49:04,VALID,915.491,VALID,0,VALID,82.9428,VALID,258.718,VALID,22.0208,VALID,147,VALID,0,
2013-06-01, 07:50:04,VALID,915.856,VALID,0,VALID,83.019,VALID,261.619,VALID,22.042,VALID,167,VALID,0,
2013-06-01, 07:51:04,VALID,915.622,VALID,0,VALID,83.3239,VALID,264.628,VALID,22.0225,VALID,139,VALID,0,
2013-06-01, 07:52:04,VALID,915.62,VALID,0,VALID,84.4446,VALID,268.173,VALID,21.9623,VALID,141,VALID,0,
2013-06-01, 07:53:04,VALID,915.638,VALID,0,VALID,83.8728,VALID,272.041,VALID,22.003,VALID,122,VALID,0,
2013-06-01, 07:54:04,VALID,915.547,VALID,0,VALID,83.4078,VALID,275.372,VALID,21.9835,VALID,125,VALID,0,
2013-06-01, 07:55:04,VALID,915.607,VALID,0,VALID,84.963,VALID,279.454,VALID,21.9623,VALID,103,VALID,0,
2013-06-01, 07:56:04,VALID,915.574,VALID,0,VALID,83.8423,VALID,282.14,VALID,22.0598,VALID,150,VALID,0,
2013-06-01, 07:57:04,VALID,915.631,VALID,0,VALID,83.3544,VALID,285.901,VALID,22.1786,VALID,134,VALID,0,
2013-06-01, 07:58:04,VALID,915.691,VALID,0,VALID,83.9414,VALID,289.017,VALID,22.2745,VALID,120,VALID,0,
2013-06-01, 07:59:04,VALID,915.708,VALID,0,VALID,81.7001,VALID,291.81,VALID,22.4306,VALID,170,VALID,0,
2013-06-01, 08:00:04,VALID,915.674,VALID,0,VALID,80.9302,VALID,294.281,VALID,22.5884,VALID,163,VALID,0,
2013-06-01, 08:01:04,VALID,915.676,VALID,0,VALID,80.61,VALID,297.29,VALID,22.6843,VALID,112,VALID,0,
2013-06-01, 08:02:04,VALID,915.712,VALID,0,VALID,79.9391,VALID,300.513,VALID,22.7818,VALID,150,VALID,0,
2013-06-01, 08:03:04,VALID,915.641,VALID,0,VALID,80.0154,VALID,304.381,VALID,22.8794,VALID,92,VALID,0,
2013-06-01, 08:04:04,VALID,915.646,VALID,0,VALID,80.488,VALID,306.53,VALID,22.8989,VALID,129,VALID,0,
2013-06-01, 08:05:04,VALID,915.715,VALID,0,VALID,79.8629,VALID,310.075,VALID,22.8599,VALID,145,VALID,0,
2013-06-01, 08:06:04,VALID,915.687,VALID,0,VALID,79.9239,VALID,314.158,VALID,22.8794,VALID,170,VALID,0,
2013-06-01, 08:07:04,VALID,915.665,VALID,0,VALID,79.4436,VALID,317.596,VALID,22.9185,VALID,133,VALID,0,
2013-06-01, 08:08:04,VALID,915.746,VALID,0,VALID,79.3903,VALID,322.216,VALID,22.9965,VALID,111,VALID,0,
2013-06-01, 08:09:04,VALID,915.714,VALID,0,VALID,80.0611,VALID,326.514,VALID,23.0941,VALID,142,VALID,0,
2013-06-01, 08:10:04,VALID,915.693,VALID,0,VALID,80.2441,VALID,329.092,VALID,23.1722,VALID,104,VALID,0,
2013-06-01, 08:11:04,VALID,915.783,VALID,0,VALID,78.2696,VALID,332.96,VALID,23.1704,VALID,68,VALID,0,
2013-06-01, 08:12:04,VALID,915.77,VALID,0,VALID,79.3216,VALID,335.109,VALID,23.2502,VALID,15,VALID,0,
2013-06-01, 08:13:04,VALID,915.709,VALID,0,VALID,79.6952,VALID,338.117,VALID,23.3283,VALID,82,VALID,0,
2013-06-01, 08:14:04,VALID,915.786,VALID,0,VALID,78.1705,VALID,341.555,VALID,23.4046,VALID,159,VALID,0,
2013-06-01, 08:15:04,VALID,915.762,VALID,0,VALID,77.492,VALID,347.035,VALID,23.504,VALID,167,VALID,0,
2013-06-01, 08:16:04,VALID,915.789,VALID,0,VALID,79.2607,VALID,351.333,VALID,23.6406,VALID,101,VALID,0,
2013-06-01, 08:17:04,VALID,915.758,VALID,0,VALID,77.8122,VALID,354.341,VALID,23.7169,VALID,100,VALID,0,
2013-06-01, 08:18:04,VALID,915.77,VALID,0,VALID,78.7423,VALID,357.779,VALID,23.8358,VALID,57,VALID,0,
2013-06-01, 08:19:04,VALID,915.782,VALID,0,VALID,77.4387,VALID,361.432,VALID,23.9139,VALID,79,VALID,0,
2013-06-01, 08:20:04,VALID,915.69,VALID,0,VALID,76.1884,VALID,364.763,VALID,23.795,VALID,110,VALID,0,
2013-06-01, 08:21:04,VALID,915.717,VALID,0,VALID,77.0956,VALID,367.556,VALID,23.756,VALID,165,VALID,0,
2013-06-01, 08:22:04,VALID,915.669,VALID,0,VALID,76.1808,VALID,370.672,VALID,23.6211,VALID,80,VALID,0,
2013-06-01, 08:23:04,VALID,915.649,VALID,0,VALID,77.2404,VALID,375.614,VALID,23.6406,VALID,65,VALID,0,
2013-06-01, 08:24:04,VALID,915.722,VALID,0,VALID,76.8593,VALID,379.804,VALID,23.7578,VALID,76,VALID,0,
2013-06-01, 08:25:04,VALID,915.666,VALID,0,VALID,77.3396,VALID,382.92,VALID,23.7968,VALID,118,VALID,0,
2013-06-01, 08:26:04,VALID,915.724,VALID,0,VALID,76.6763,VALID,387.11,VALID,23.8944,VALID,148,VALID,0,
2013-06-01, 08:27:04,VALID,915.726,VALID,0,VALID,75.3803,VALID,390.226,VALID,23.9139,VALID,108,VALID,0,
2013-06-01, 08:28:04,VALID,915.748,VALID,0,VALID,75.548,VALID,394.309,VALID,23.834,VALID,132,VALID,0,
2013-06-01, 08:29:04,VALID,915.767,VALID,0,VALID,76.623,VALID,397.747,VALID,23.9139,VALID,142,VALID,0,
2013-06-01, 08:30:04,VALID,915.813,VALID,0,VALID,75.0525,VALID,399.036,VALID,24.0311,VALID,173,VALID,0,
2013-06-01, 08:31:04,VALID,915.779,VALID,0,VALID,75.8606,VALID,402.045,VALID,24.1677,VALID,149,VALID,0,
2013-06-01, 08:32:04,VALID,915.71,VALID,0,VALID,74.1225,VALID,406.665,VALID,24.0701,VALID,131,VALID,0,
2013-06-01, 08:33:04,VALID,915.71,VALID,0,VALID,74.6485,VALID,408.814,VALID,24.0311,VALID,154,VALID,0,
2013-06-01, 08:34:04,VALID,915.711,VALID,0,VALID,74.2368,VALID,412.144,VALID,24.0896,VALID,174,VALID,0,
2013-06-01, 08:35:04,VALID,915.784,VALID,0,VALID,74.3054,VALID,415.045,VALID,24.2049,VALID,164,VALID,0,
2013-06-01, 08:36:04,VALID,915.801,VALID,0,VALID,73.7794,VALID,419.88,VALID,24.2068,VALID,173,VALID,0,
2013-06-01, 08:37:04,VALID,915.83,VALID,0,VALID,73.4821,VALID,423.64,VALID,24.1873,VALID,160,VALID,0,
2013-06-01, 08:38:04,VALID,915.775,VALID,0,VALID,72.9866,VALID,427.186,VALID,24.0896,VALID,171,VALID,0,
2013-06-01, 08:39:04,VALID,915.771,VALID,0,VALID,73.909,VALID,430.302,VALID,23.9902,VALID,173,VALID,0,
2013-06-01, 08:40:04,VALID,915.827,VALID,0,VALID,74.3512,VALID,433.632,VALID,23.9902,VALID,158,VALID,0,
2013-06-01, 08:41:04,VALID,915.727,VALID,0,VALID,73.1238,VALID,436.104,VALID,24.0488,VALID,189,VALID,0,
2013-06-01, 08:42:04,VALID,915.737,VALID,0,VALID,72.4529,VALID,438.897,VALID,24.1659,VALID,154,VALID,0,
2013-06-01, 08:43:04,VALID,915.784,VALID,0,VALID,73.4211,VALID,442.658,VALID,24.2458,VALID,124,VALID,0,
2013-06-01, 08:44:04,VALID,915.868,VALID,0,VALID,73.322,VALID,446.096,VALID,24.2049,VALID,161,VALID,0,
2013-06-01, 08:45:04,VALID,915.825,VALID,0,VALID,73.8938,VALID,449.211,VALID,24.1269,VALID,181,VALID,0,
2013-06-01, 08:46:04,VALID,915.856,VALID,0,VALID,73.1162,VALID,451.575,VALID,24.1659,VALID,159,VALID,0,
2013-06-01, 08:47:04,VALID,915.851,VALID,0,VALID,74.3512,VALID,454.584,VALID,24.1854,VALID,121,VALID,0,
2013-06-01, 08:48:04,VALID,915.885,VALID,0,VALID,73.1695,VALID,457.055,VALID,24.3435,VALID,166,VALID,0,
2013-06-01, 08:49:04,VALID,915.914,VALID,0,VALID,72.8951,VALID,459.418,VALID,24.5368,VALID,175,VALID,0,
2013-06-01, 08:50:04,VALID,915.962,VALID,0,VALID,73.6651,VALID,461.782,VALID,24.7711,VALID,191,VALID,0,
2013-06-01, 08:51:04,VALID,915.88,VALID,0,VALID,72.735,VALID,466.187,VALID,24.9274,VALID,175,VALID,0,
2013-06-01, 08:52:04,VALID,915.887,VALID,0,VALID,72.4834,VALID,469.41,VALID,24.9859,VALID,191,VALID,0,
2013-06-01, 08:53:04,VALID,915.787,VALID,0,VALID,72.4529,VALID,472.741,VALID,24.9469,VALID,223,VALID,0,
2013-06-01, 08:54:04,VALID,915.939,VALID,0,VALID,72.8875,VALID,474.997,VALID,24.9859,VALID,200,VALID,0,
2013-06-01, 08:55:04,VALID,915.876,VALID,0,VALID,72.4911,VALID,477.576,VALID,24.9274,VALID,239,VALID,0,
2013-06-01, 08:56:04,VALID,915.945,VALID,0,VALID,72.5597,VALID,480.262,VALID,24.7907,VALID,227,VALID,0,
2013-06-01, 08:57:04,VALID,915.842,VALID,0,VALID,74.9382,VALID,483.807,VALID,24.7516,VALID,190,VALID,0,
2013-06-01, 08:58:04,VALID,915.882,VALID,0,VALID,71.9346,VALID,485.956,VALID,24.8121,VALID,184,VALID,0,
2013-06-01, 08:59:04,VALID,915.881,VALID,0,VALID,72.1099,VALID,490.361,VALID,24.8883,VALID,190,VALID,0,
2013-06-01, 09:00:04,VALID,915.838,VALID,0,VALID,71.3018,VALID,492.188,VALID,24.9664,VALID,154,VALID,0,
2013-06-01, 09:01:04,VALID,915.885,VALID,0,VALID,73.3754,VALID,496.163,VALID,25.1245,VALID,149,VALID,0,
2013-06-01, 09:02:04,VALID,915.921,VALID,0,VALID,72.4301,VALID,498.742,VALID,25.2007,VALID,208,VALID,0,
2013-06-01, 09:03:04,VALID,915.898,VALID,0,VALID,72.0108,VALID,500.891,VALID,25.2984,VALID,231,VALID,0,
2013-06-01, 09:04:04,VALID,915.91,VALID,0,VALID,71.5153,VALID,504.544,VALID,25.4156,VALID,182,VALID,0,
2013-06-01, 09:05:04,VALID,915.898,VALID,0,VALID,70.1659,VALID,507.23,VALID,25.5718,VALID,202,VALID,0,
2013-06-01, 09:06:04,VALID,915.926,VALID,0,VALID,68.8166,VALID,510.453,VALID,25.6519,VALID,194,VALID,0,
2013-06-01, 09:07:04,VALID,915.917,VALID,0,VALID,68.5879,VALID,511.742,VALID,25.6499,VALID,229,VALID,0,
2013-06-01, 09:08:04,VALID,915.875,VALID,0,VALID,69.1139,VALID,516.362,VALID,25.5913,VALID,224,VALID,0,
2013-06-01, 09:09:04,VALID,915.828,VALID,0,VALID,68.5803,VALID,518.726,VALID,25.5327,VALID,239,VALID,0,
2013-06-01, 09:10:04,VALID,915.974,VALID,0,VALID,69.3273,VALID,521.197,VALID,25.396,VALID,253,VALID,0,
2013-06-01, 09:11:04,VALID,915.857,VALID,0,VALID,70.4251,VALID,524.85,VALID,25.1617,VALID,234,VALID,0,
2013-06-01, 09:12:04,VALID,915.867,VALID,0,VALID,70.5166,VALID,528.825,VALID,25.1031,VALID,220,VALID,0,
2013-06-01, 09:13:04,VALID,915.906,VALID,0,VALID,72.0565,VALID,531.404,VALID,25.1031,VALID,175,VALID,0,
2013-06-01, 09:14:04,VALID,915.875,VALID,0,VALID,72.1937,VALID,535.487,VALID,25.2203,VALID,174,VALID,0,
2013-06-01, 09:15:04,VALID,915.862,VALID,0,VALID,72.5902,VALID,536.561,VALID,25.4351,VALID,182,VALID,0,
2013-06-01, 09:16:04,VALID,915.839,VALID,0,VALID,68.3134,VALID,539.677,VALID,25.5327,VALID,165,VALID,0,
2013-06-01, 09:17:04,VALID,915.903,VALID,0,VALID,66.865,VALID,542.47,VALID,25.4937,VALID,173,VALID,0,
2013-06-01, 09:18:04,VALID,915.848,VALID,0,VALID,68.5955,VALID,545.479,VALID,25.3746,VALID,168,VALID,0,
2013-06-01, 09:19:04,VALID,915.912,VALID,0,VALID,68.5803,VALID,547.09,VALID,25.4351,VALID,179,VALID,0,
2013-06-01, 09:20:04,VALID,915.97,VALID,0,VALID,67.856,VALID,549.454,VALID,25.5308,VALID,192,VALID,0,
2013-06-01, 09:21:04,VALID,915.927,VALID,0,VALID,67.917,VALID,552.247,VALID,25.7066,VALID,182,VALID,0,
2013-06-01, 09:22:04,VALID,915.943,VALID,0,VALID,67.0403,VALID,555.148,VALID,25.8042,VALID,165,VALID,0,
2013-06-01, 09:23:04,VALID,915.782,VALID,0,VALID,66.1636,VALID,559.446,VALID,25.8062,VALID,166,VALID,0,
2013-06-01, 09:24:04,VALID,915.903,VALID,0,VALID,67.3453,VALID,562.777,VALID,25.7085,VALID,160,VALID,0,
2013-06-01, 09:25:04,VALID,915.898,VALID,0,VALID,66.1789,VALID,567.074,VALID,25.8452,VALID,195,VALID,0,
2013-06-01, 09:26:04,VALID,915.936,VALID,0,VALID,66.7125,VALID,569.223,VALID,26.0796,VALID,193,VALID,0,
2013-06-01, 09:27:04,VALID,915.86,VALID,0,VALID,64.6618,VALID,571.479,VALID,26.3336,VALID,192,VALID,0,
2013-06-01, 09:28:04,VALID,915.846,VALID,0,VALID,65.2336,VALID,573.091,VALID,26.5094,VALID,157,VALID,0,
2013-06-01, 09:29:04,VALID,915.813,VALID,0,VALID,65.0659,VALID,575.885,VALID,26.2359,VALID,165,VALID,0,
2013-06-01, 09:30:04,VALID,915.884,VALID,0,VALID,65.8206,VALID,579.645,VALID,26.2164,VALID,184,VALID,0,
2013-06-01, 09:31:04,VALID,915.869,VALID,0,VALID,65.0354,VALID,579.86,VALID,26.2164,VALID,196,VALID,0,
2013-06-01, 09:32:04,VALID,915.783,VALID,0,VALID,65.9044,VALID,580.612,VALID,26.2534,VALID,168,VALID,0,
2013-06-01, 09:33:04,VALID,915.765,VALID,0,VALID,65.9502,VALID,585.125,VALID,26.4508,VALID,179,VALID,0,
2013-06-01, 09:34:04,VALID,915.811,VALID,0,VALID,65.7596,VALID,586.629,VALID,26.6461,VALID,169,VALID,0,
2013-06-01, 09:35:04,VALID,915.819,VALID,0,VALID,64.8981,VALID,588.885,VALID,26.7007,VALID,67,VALID,0,
2013-06-01, 09:36:04,VALID,915.825,VALID,0,VALID,63.8614,VALID,592.431,VALID,26.5895,VALID,41,VALID,0,
2013-06-01, 09:37:04,VALID,915.855,VALID,0,VALID,64.8753,VALID,595.224,VALID,26.5505,VALID,66,VALID,0,
2013-06-01, 09:38:04,VALID,915.922,VALID,0,VALID,65.7672,VALID,597.373,VALID,26.6657,VALID,44,VALID,0,
2013-06-01, 09:39:04,VALID,915.854,VALID,0,VALID,66.6896,VALID,596.083,VALID,26.6441,VALID,124,VALID,0,
2013-06-01, 09:40:04,VALID,915.803,VALID,0,VALID,65.5614,VALID,602.852,VALID,26.6327,VALID,167,VALID,0,
2013-06-01, 09:41:04,VALID,915.814,VALID,0,VALID,66.1636,VALID,607.902,VALID,26.3922,VALID,181,VALID,0,
2013-06-01, 09:42:04,VALID,915.945,VALID,0,VALID,66.9183,VALID,607.795,VALID,26.3336,VALID,133,VALID,0,
2013-06-01, 09:43:04,VALID,915.846,VALID,0,VALID,66.56,VALID,609.943,VALID,26.3706,VALID,177,VALID,0,
2013-06-01, 09:44:04,VALID,915.867,VALID,0,VALID,67.1089,VALID,613.167,VALID,26.5309,VALID,107,VALID,0,
2013-06-01, 09:45:04,VALID,915.805,VALID,0,VALID,66.8726,VALID,618.002,VALID,26.2514,VALID,106,VALID,0,
2013-06-01, 09:46:04,VALID,915.878,VALID,0,VALID,69.5713,VALID,622.299,VALID,26.1342,VALID,101,VALID,0,
2013-06-01, 09:47:04,VALID,915.776,VALID,0,VALID,67.0479,VALID,621.977,VALID,26.1597,VALID,185,VALID,0,
2013-06-01, 09:48:04,VALID,915.893,VALID,0,VALID,65.6681,VALID,623.696,VALID,26.2594,VALID,191,VALID,0,
2013-06-01, 09:49:04,VALID,915.753,VALID,0,VALID,65.7977,VALID,626.812,VALID,26.3686,VALID,53,VALID,0,
2013-06-01, 09:50:04,VALID,915.94,VALID,0,VALID,65.2259,VALID,629.927,VALID,26.4858,VALID,90,VALID,0,
2013-06-01, 09:51:04,VALID,915.735,VALID,0,VALID,65.3022,VALID,630.572,VALID,26.4898,VALID,168,VALID,0,
2013-06-01, 09:52:04,VALID,915.929,VALID,0,VALID,64.982,VALID,631.969,VALID,26.5094,VALID,91,VALID,0,
2013-06-01, 09:53:04,VALID,915.383,VALID,0,VALID,64.5856,VALID,634.225,VALID,26.3706,VALID,83,VALID,0,
2013-06-01, 09:54:04,VALID,916.263,VALID,0,VALID,64.2883,VALID,636.374,VALID,26.4488,VALID,69,VALID,0,
2013-06-01, 09:55:04,VALID,915.807,VALID,0,VALID,62.7331,VALID,639.705,VALID,26.5875,VALID,69,VALID,0,
2013-06-01, 09:56:04,VALID,915.857,VALID,0,VALID,64.0138,VALID,640.564,VALID,26.7047,VALID,96,VALID,0,
2013-06-01, 09:57:04,VALID,916.121,VALID,0,VALID,64.3111,VALID,643.035,VALID,26.6852,VALID,100,VALID,0,
2013-06-01, 09:58:04,VALID,915.666,VALID,0,VALID,63.9223,VALID,647.118,VALID,26.8024,VALID,39,VALID,0,
2013-06-01, 09:59:04,VALID,915.57,VALID,0,VALID,62.2909,VALID,650.556,VALID,26.859,VALID,36,VALID,0,
2013-06-01, 10:00:04,VALID,915.677,VALID,0,VALID,64.738,VALID,652.168,VALID,26.7788,VALID,19,VALID,0,
2013-06-01, 10:01:04,VALID,915.61,VALID,0,VALID,62.7636,VALID,653.994,VALID,26.9392,VALID,70,VALID,0,
2013-06-01, 10:02:04,VALID,915.767,VALID,0,VALID,64.0519,VALID,655.498,VALID,26.9587,VALID,66,VALID,0,
2013-06-01, 10:03:04,VALID,915.661,VALID,0,VALID,64.6694,VALID,658.829,VALID,26.861,VALID,39,VALID,0,
2013-06-01, 10:04:04,VALID,915.631,VALID,0,VALID,63.2057,VALID,660.548,VALID,26.7027,VALID,125,VALID,0,
2013-06-01, 10:05:04,VALID,915.647,VALID,0,VALID,63.1448,VALID,661.838,VALID,26.7459,VALID,19,VALID,0,
2013-06-01, 10:06:04,VALID,913.689,VALID,0,VALID,62.8627,VALID,665.598,VALID,27.0564,VALID,21,VALID,0,
2013-06-01, 10:07:04,INVALID,916.798,VALID,0,VALID,62.0394,VALID,668.069,VALID,27.1911,VALID,145,VALID,0,
2013-06-01, 10:08:04,VALID,915.678,VALID,0,VALID,61.2465,VALID,668.284,VALID,27.2302,VALID,183,VALID,0,
2013-06-01, 10:09:04,VALID,915.606,VALID,0,VALID,61.8488,VALID,671.077,VALID,27.33,VALID,52,VALID,0,
2013-06-01, 10:10:04,VALID,915.609,VALID,0,VALID,61.1322,VALID,672.689,VALID,27.4842,VALID,43,VALID,0,
2013-06-01, 10:11:04,VALID,915.57,VALID,0,VALID,60.9721,VALID,675.16,VALID,27.7383,VALID,30,VALID,0,
2013-06-01, 10:12:04,VALID,915.527,VALID,0,VALID,59.3864,VALID,676.987,VALID,28.0314,VALID,18,VALID,0,
2013-06-01, 10:13:04,VALID,915.394,VALID,0,VALID,59.1577,VALID,681.177,VALID,28.0858,VALID,220,VALID,0,
2013-06-01, 10:14:04,VALID,915.482,VALID,0,VALID,57.6483,VALID,679.135,VALID,28.0509,VALID,183,VALID,0,
2013-06-01, 10:15:04,VALID,915.637,VALID,0,VALID,57.8694,VALID,684.4,VALID,27.7578,VALID,165,VALID,0,
2013-06-01, 10:16:04,VALID,915.466,VALID,0,VALID,60.5757,VALID,684.615,VALID,27.7187,VALID,182,VALID,0,
2013-06-01, 10:17:04,VALID,915.498,VALID,0,VALID,58.3191,VALID,688.59,VALID,27.7187,VALID,160,VALID,0,
2013-06-01, 10:18:04,VALID,915.388,VALID,0,VALID,60.2097,VALID,691.276,VALID,27.6406,VALID,98,VALID,0,
2013-06-01, 10:19:04,VALID,915.486,VALID,0,VALID,62.2757,VALID,695.789,VALID,27.4256,VALID,168,VALID,0,
2013-06-01, 10:20:04,VALID,915.375,VALID,0,VALID,59.3026,VALID,695.359,VALID,27.4256,VALID,127,VALID,0,
2013-06-01, 10:21:04,VALID,915.408,VALID,0,VALID,61.399,VALID,698.26,VALID,27.3886,VALID,136,VALID,0,
2013-06-01, 10:22:04,VALID,915.348,VALID,0,VALID,60.4918,VALID,699.764,VALID,27.4451,VALID,207,VALID,0,
2013-06-01, 10:23:04,VALID,915.391,VALID,0,VALID,62.1232,VALID,701.591,VALID,27.5428,VALID,84,VALID,0,
2013-06-01, 10:24:04,VALID,915.396,VALID,0,VALID,57.755,VALID,704.277,VALID,27.6015,VALID,138,VALID,0,
2013-06-01, 10:25:04,VALID,915.314,VALID,0,VALID,56.2532,VALID,707.285,VALID,27.4647,VALID,142,VALID,0,
2013-06-01, 10:26:04,VALID,915.343,VALID,0,VALID,59.1577,VALID,709.756,VALID,27.5038,VALID,108,VALID,0,
2013-06-01, 10:27:04,VALID,915.403,VALID,0,VALID,57.7245,VALID,711.798,VALID,27.4647,VALID,126,VALID,0,
2013-06-01, 10:28:04,VALID,915.405,VALID,0,VALID,58.0981,VALID,714.484,VALID,27.3084,VALID,95,VALID,0,
2013-06-01, 10:29:04,VALID,915.437,VALID,0,VALID,58.7384,VALID,717.277,VALID,27.1305,VALID,129,VALID,0,
2013-06-01, 10:30:04,VALID,915.374,VALID,0,VALID,58.7613,VALID,719.963,VALID,27.1521,VALID,128,VALID,0,
2013-06-01, 10:31:04,VALID,915.4,VALID,0,VALID,59.7905,VALID,723.294,VALID,27.3279,VALID,196,VALID,0,
2013-06-01, 10:32:04,VALID,915.396,VALID,0,VALID,56.642,VALID,726.302,VALID,27.4061,VALID,112,VALID,0,
2013-06-01, 10:33:04,VALID,915.357,VALID,0,VALID,59.8819,VALID,727.484,VALID,27.3279,VALID,145,VALID,0,
2013-06-01, 10:34:04,VALID,915.348,VALID,0,VALID,58.1133,VALID,729.955,VALID,27.5624,VALID,78,VALID,0,
2013-06-01, 10:35:04,VALID,915.262,VALID,0,VALID,57.8389,VALID,731.567,VALID,27.7383,VALID,149,VALID,0,
2013-06-01, 10:36:04,VALID,915.238,VALID,0,VALID,58.4792,VALID,733.501,VALID,27.8164,VALID,158,VALID,0,
2013-06-01, 10:37:04,VALID,915.242,VALID,0,VALID,56.1922,VALID,735.005,VALID,27.9532,VALID,103,VALID,0,
2013-06-01, 10:38:04,VALID,915.205,VALID,0,VALID,58.1972,VALID,736.939,VALID,27.7383,VALID,175,VALID,0,
2013-06-01, 10:39:04,VALID,915.145,VALID,0,VALID,56.7944,VALID,741.989,VALID,27.836,VALID,166,VALID,0,
2013-06-01, 10:40:04,VALID,915.212,VALID,0,VALID,57.2137,VALID,748.22,VALID,27.9532,VALID,52,VALID,0,
2013-06-01, 10:41:04,VALID,915.133,VALID,0,VALID,59.8819,VALID,752.195,VALID,27.9141,VALID,56,VALID,0,
2013-06-01, 10:42:04,VALID,915.081,VALID,0,VALID,56.8021,VALID,751.443,VALID,27.836,VALID,43,VALID,0,
2013-06-01, 10:43:04,VALID,915.112,VALID,0,VALID,59.2339,VALID,749.187,VALID,27.7362,VALID,41,VALID,0,
2013-06-01, 10:44:04,VALID,915.094,VALID,0,VALID,59.8591,VALID,747.361,VALID,27.8164,VALID,58,VALID,0,
2013-06-01, 10:45:04,VALID,915.136,VALID,0,VALID,59.5236,VALID,745.857,VALID,27.9316,VALID,30,VALID,0,
2013-06-01, 10:46:04,VALID,915.218,VALID,0,VALID,54.8733,VALID,746.394,VALID,27.8555,VALID,129,VALID,0,
2013-06-01, 10:47:04,VALID,915.005,VALID,0,VALID,55.1859,VALID,747.361,VALID,27.6189,VALID,113,VALID,0,
2013-06-01, 10:48:04,VALID,915.146,VALID,0,VALID,55.7805,VALID,750.369,VALID,27.6015,VALID,121,VALID,0,
2013-06-01, 10:49:04,VALID,915.012,VALID,0,VALID,57.572,VALID,752.195,VALID,27.6971,VALID,36,VALID,0,
2013-06-01, 10:50:04,VALID,915.132,VALID,0,VALID,55.0487,VALID,754.237,VALID,28.0097,VALID,183,VALID,0,
2013-06-01, 10:51:04,VALID,915.049,VALID,0,VALID,55.3765,VALID,756.386,VALID,28.1487,VALID,211,VALID,0,
2013-06-01, 10:52:04,VALID,915.052,VALID,0,VALID,54.8429,VALID,756.278,VALID,28.1465,VALID,149,VALID,0,
2013-06-01, 10:53:04,VALID,915.018,VALID,0,VALID,55.5595,VALID,759.609,VALID,28.0314,VALID,184,VALID,0,
2013-06-01, 10:54:04,VALID,914.985,VALID,0,VALID,55.5442,VALID,761.006,VALID,28.0314,VALID,188,VALID,0,
2013-06-01, 10:55:04,VALID,915.07,VALID,0,VALID,55.6891,VALID,763.154,VALID,28.09,VALID,195,VALID,0,
2013-06-01, 10:56:04,VALID,915.047,VALID,0,VALID,55.8796,VALID,764.981,VALID,28.1096,VALID,194,VALID,0,
2013-06-01, 10:57:04,VALID,915.026,VALID,0,VALID,55.1707,VALID,768.419,VALID,28.1877,VALID,173,VALID,0,